Location: Lecco
(45.8566°N, 9.3977°E)
Time: 04:23:43
(UTC+02:00)

Transit 4A - Pass Details

Date: 16 August 2020
Orbit: 863 x 982 km, 66.8° (Epoch: 23 September)

Event Time Altitude Azimuth Distance (km) Brightness Sun altitude
Rises 10:07:03 0° 229° (SW) 3,496 10.7 37.2°
Reaches altitude 10° 10:09:35 10° 235° (SW) 2,576 10.0 37.6°
Maximum altitude 10:15:23 50° 310° (NW) 1,160 8.5 38.5°
Drops below altitude 10° 10:21:26 10° 26° (NNE) 2,672 10.4 39.5°
Sets 10:24:07 0° 32° (NNE) 3,637 11.1 39.9°
